HBFGA EGPH-LFLV

Flight info

Callsign HBFGA
Flight time N/A
Altitude 25000
Route TLA DCT ANJAK/N0271F260 N38 NOKIN/N0272F250 N862 RISLA L15 KEPAD L151 MID UL612 RESMI UM728 KETEX DCT KUKOR
Aircraft PC12/L-SDFGRWY/S

Departure

Time 2026-05-05 10:48
Airport Edinburgh Airport (EGPH)

Arrival

Time N/A
Airport Vichy-Charmeil Airport (LFLV)
Time Latitude Longitude Altitude Speed Heading
2026-05-05 10:03 55.94837 -3.34394 85 ft 0 kts 282°
2026-05-05 10:42 55.94845 -3.34490 113 ft 12 kts 266°
2026-05-05 10:42 55.94793 -3.34657 111 ft 17 kts 239°
2026-05-05 10:42 55.94793 -3.34847 113 ft 17 kts 308°
2026-05-05 10:43 55.94852 -3.35032 113 ft 17 kts 298°
2026-05-05 10:43 55.94908 -3.35219 112 ft 17 kts 299°
2026-05-05 10:43 55.94966 -3.35407 112 ft 17 kts 298°
2026-05-05 10:43 55.95024 -3.35597 112 ft 17 kts 298°
2026-05-05 10:44 55.95056 -3.35801 113 ft 18 kts 267°
2026-05-05 10:44 55.95095 -3.36011 112 ft 18 kts 290°
2026-05-05 10:44 55.95134 -3.36223 112 ft 18 kts 282°
2026-05-05 10:44 55.95088 -3.36420 112 ft 18 kts 238°
2026-05-05 10:45 55.95022 -3.36613 112 ft 19 kts 238°
2026-05-05 10:45 55.94954 -3.36812 112 ft 19 kts 238°
2026-05-05 10:45 55.94885 -3.37014 111 ft 19 kts 239°
2026-05-05 10:45 55.94817 -3.37217 112 ft 19 kts 239°
2026-05-05 10:46 55.94746 -3.37427 111 ft 20 kts 239°
2026-05-05 10:46 55.94677 -3.37630 112 ft 20 kts 239°
2026-05-05 10:46 55.94615 -3.37811 111 ft 15 kts 238°
2026-05-05 10:46 55.94597 -3.37957 110 ft 13 kts 320°
2026-05-05 10:47 55.94678 -3.38043 111 ft 14 kts 330°
2026-05-05 10:47 55.94738 -3.38019 111 ft 0 kts 57°
2026-05-05 10:47 55.94739 -3.38016 110 ft 5 kts 57°
2026-05-05 10:47 55.94856 -3.37670 110 ft 60 kts 59°
2026-05-05 10:48 55.95132 -3.36860 185 ft 85 kts 59°
2026-05-05 10:48 55.95431 -3.35900 447 ft 89 kts 63°
2026-05-05 10:48 55.95754 -3.34941 721 ft 93 kts 57°
2026-05-05 10:48 55.96188 -3.33977 1060 ft 106 kts 40°
2026-05-05 10:49 55.96760 -3.33087 1479 ft 112 kts 41°
2026-05-05 10:49 55.97349 -3.32147 1929 ft 116 kts 42°
2026-05-05 10:49 55.97957 -3.31170 2384 ft 119 kts 41°
2026-05-05 10:49 55.98575 -3.30176 2820 ft 121 kts 41°
2026-05-05 10:50 55.99131 -3.29279 3243 ft 122 kts 41°
2026-05-05 10:50 55.99765 -3.28255 3705 ft 123 kts 41°
2026-05-05 10:50 56.00178 -3.27590 4004 ft 124 kts 40°
2026-05-05 10:51 56.00864 -3.26484 4486 ft 126 kts 41°
2026-05-05 10:51 56.01307 -3.25769 4790 ft 128 kts 40°
2026-05-05 10:51 56.01958 -3.24716 5234 ft 129 kts 40°
2026-05-05 10:52 56.02629 -3.23632 5688 ft 131 kts 40°
2026-05-05 10:52 56.03309 -3.22532 6158 ft 133 kts 40°
2026-05-05 10:52 56.03993 -3.21428 6625 ft 133 kts 41°
2026-05-05 10:52 56.04478 -3.20015 7047 ft 140 kts 79°
2026-05-05 10:53 56.04417 -3.18238 7433 ft 147 kts 95°
2026-05-05 10:53 56.04275 -3.16397 7873 ft 151 kts 95°
2026-05-05 10:53 56.04137 -3.14523 8395 ft 153 kts 96°
2026-05-05 10:53 56.03998 -3.12623 8961 ft 155 kts 96°
2026-05-05 10:54 56.03857 -3.10693 9534 ft 158 kts 97°
2026-05-05 10:54 56.03686 -3.08740 10086 ft 161 kts 108°
2026-05-05 10:54 56.03106 -3.07054 10596 ft 160 kts 140°
2026-05-05 10:54 56.02234 -3.05806 11107 ft 162 kts 146°
2026-05-05 10:55 56.01345 -3.04564 11644 ft 163 kts 146°
2026-05-05 10:55 56.00444 -3.03303 12182 ft 165 kts 146°
2026-05-05 10:55 55.99534 -3.02031 12719 ft 167 kts 147°
2026-05-05 10:55 55.98610 -3.00740 13258 ft 169 kts 147°
2026-05-05 10:56 55.97639 -2.99774 13753 ft 163 kts 174°
2026-05-05 10:56 55.96524 -2.99411 14237 ft 163 kts 179°
2026-05-05 10:56 55.95411 -2.99285 14728 ft 156 kts 198°
2026-05-05 10:56 55.94415 -2.99919 15221 ft 151 kts 213°
2026-05-05 10:57 55.93449 -3.00708 15729 ft 153 kts 212°
2026-05-05 10:57 55.92480 -3.01486 16255 ft 154 kts 212°
2026-05-05 10:57 55.91496 -3.02277 16777 ft 155 kts 212°
2026-05-05 10:57 55.90508 -3.03070 17309 ft 156 kts 212°
2026-05-05 10:58 55.89514 -3.03868 17853 ft 157 kts 212°
2026-05-05 10:58 55.88513 -3.04670 18396 ft 159 kts 212°
2026-05-05 10:58 55.87593 -3.05408 18812 ft 160 kts 212°
2026-05-05 10:58 55.86573 -3.06226 19274 ft 161 kts 211°
2026-05-05 10:59 55.85545 -3.07049 19739 ft 163 kts 211°
2026-05-05 10:59 55.84506 -3.07881 20201 ft 164 kts 211°
2026-05-05 10:59 55.83459 -3.08718 20653 ft 167 kts 211°
2026-05-05 10:59 55.82382 -3.09581 21034 ft 172 kts 211°
2026-05-05 11:00 55.81287 -3.10457 21422 ft 177 kts 210°
2026-05-05 11:00 55.80150 -3.11365 21817 ft 181 kts 210°
2026-05-05 11:00 55.78992 -3.12288 22210 ft 184 kts 210°
2026-05-05 11:00 55.77814 -3.13227 22623 ft 187 kts 210°
2026-05-05 11:01 55.76620 -3.14178 23025 ft 189 kts 210°
2026-05-05 11:01 55.75422 -3.15130 23435 ft 189 kts 209°
2026-05-05 11:01 55.74218 -3.16086 23814 ft 190 kts 209°
2026-05-05 11:01 55.73014 -3.17044 24166 ft 191 kts 209°
2026-05-05 11:02 55.71798 -3.18012 24525 ft 192 kts 209°
2026-05-05 11:02 55.70572 -3.18986 24880 ft 193 kts 209°
2026-05-05 11:02 55.69320 -3.19982 25045 ft 205 kts 209°
2026-05-05 11:02 55.67961 -3.21068 25051 ft 222 kts 208°
2026-05-05 11:03 55.66508 -3.22219 25058 ft 235 kts 208°
2026-05-05 11:03 55.64980 -3.23426 25054 ft 246 kts 208°
2026-05-05 11:03 55.63391 -3.24681 25050 ft 254 kts 208°
2026-05-05 11:03 55.61826 -3.25915 25042 ft 259 kts 208°
2026-05-05 11:04 55.60120 -3.27258 25041 ft 263 kts 208°
2026-05-05 11:04 55.58457 -3.28568 25042 ft 266 kts 208°
2026-05-05 11:04 55.56786 -3.29885 25042 ft 267 kts 208°
2026-05-05 11:04 55.55083 -3.31224 25038 ft 268 kts 208°
2026-05-05 11:05 55.53372 -3.32568 25035 ft 270 kts 208°
2026-05-05 11:05 55.51654 -3.33917 25038 ft 271 kts 208°
2026-05-05 11:05 55.49853 -3.34927 25035 ft 275 kts 193°
2026-05-05 11:05 55.47932 -3.35001 25042 ft 279 kts 179°
2026-05-05 11:06 55.45995 -3.34699 25037 ft 279 kts 179°
2026-05-05 11:06 55.44168 -3.34420 25038 ft 279 kts 179°
2026-05-05 11:06 55.42223 -3.34140 25036 ft 280 kts 179°
2026-05-05 11:06 55.40299 -3.33863 25038 ft 281 kts 179°
2026-05-05 11:07 55.38348 -3.33576 25031 ft 281 kts 179°
2026-05-05 11:07 55.36401 -3.33289 25033 ft 281 kts 179°
2026-05-05 11:07 55.34449 -3.33004 25033 ft 282 kts 180°
2026-05-05 11:07 55.32492 -3.32718 25030 ft 282 kts 180°
2026-05-05 11:08 55.30538 -3.32433 25032 ft 283 kts 180°
2026-05-05 11:08 55.28578 -3.32147 25028 ft 282 kts 180°
2026-05-05 11:08 55.27301 -3.31961 25024 ft 282 kts 180°
2026-05-05 11:08 55.25346 -3.31676 25025 ft 282 kts 180°
2026-05-05 11:09 55.23609 -3.31423 25023 ft 282 kts 180°
2026-05-05 11:09 55.21657 -3.31140 25021 ft 282 kts 180°
2026-05-05 11:09 55.19706 -3.30856 25019 ft 281 kts 180°
2026-05-05 11:09 55.17753 -3.30573 25022 ft 281 kts 180°
2026-05-05 11:10 55.15809 -3.30291 25017 ft 281 kts 180°
2026-05-05 11:10 55.13901 -3.30015 25019 ft 281 kts 180°
2026-05-05 11:10 55.11948 -3.29732 25016 ft 281 kts 180°
2026-05-05 11:10 55.10109 -3.29466 25019 ft 281 kts 180°
2026-05-05 11:11 55.08164 -3.29185 25018 ft 281 kts 180°
2026-05-05 11:11 55.06219 -3.28904 25016 ft 280 kts 180°
2026-05-05 11:11 55.04299 -3.28627 25016 ft 280 kts 180°
2026-05-05 11:11 55.02393 -3.28353 25018 ft 280 kts 180°
2026-05-05 11:12 55.00451 -3.28073 25014 ft 280 kts 180°
2026-05-05 11:12 54.98535 -3.27798 25011 ft 280 kts 180°
2026-05-05 11:12 54.96599 -3.27520 25015 ft 279 kts 180°
2026-05-05 11:12 54.94739 -3.27104 25017 ft 281 kts 174°
2026-05-05 11:13 54.92965 -3.26370 25021 ft 282 kts 170°
2026-05-05 11:13 54.91059 -3.25511 25018 ft 282 kts 171°
2026-05-05 11:13 54.89249 -3.24798 25018 ft 281 kts 173°
2026-05-05 11:13 54.87312 -3.24084 25015 ft 281 kts 173°
2026-05-05 11:14 54.85475 -3.23382 25015 ft 281 kts 172°
2026-05-05 11:14 54.83570 -3.22633 25016 ft 281 kts 172°
2026-05-05 11:14 54.81661 -3.21887 25021 ft 281 kts 173°
2026-05-05 11:14 54.79840 -3.21185 25017 ft 281 kts 173°